This demonstration page uses our WeatherBlox Daily Observations layout. Learn more.

Left ArrowRight Arrow

39.92423, -83.80882

Hourly Observations for February 29, 2020

Temp ( °F °C ) Dew Point ( °F °C ) Humidity (%) Winds ( mph kmh ) Pressure ( in mb ) Visibility ( mi km ) Precip ( " mm )
12:56 am 00:56 Clear 19 -7.2 16 -8.9 88 88 WNW 8 13 30.11 1020 10 16.0934 0 0
1:56 am 01:56 Clear 19 -7.2 16 -8.9 88 88 W 8 13 30.11 1020 10 16.0934 0 0
2:56 am 02:56 Clear 18 -7.8 15 -9.4 88 88 W 10 17 30.11 1020 10 16.0934 0 0
3:56 am 03:56 Clear 17 -8.3 15 -9.4 92 92 W 9 15 30.11 1020 10 16.0934 0 0
4:56 am 04:56 Clear 17 -8.3 14 -10 88 88 W 10 17 30.13 1020 10 16.0934 0 0
5:56 am 05:56 Clear 16 -8.9 13 -10.6 88 88 W 9 15 30.14 1021 10 16.0934 0 0
6:56 am 06:56 Clear 16 -8.9 12 -11.1 84 84 W 9 15 30.16 1021 10 16.0934 0 0
7:56 am 07:56 Sunny 18 -7.8 13 -10.6 81 81 W 9 15 30.19 1022 10 16.0934 0 0
8:56 am 08:56 Sunny 22 -5.6 14 -10 71 71 W 13 20 30.2 1023 10 16.0934 0 0
9:56 am 09:56 Sunny 24 -4.4 16 -8.9 71 71 WNW 12 19 30.22 1023 10 16.0934 0 0
10:56 am 10:56 Sunny 27 -2.8 18 -7.8 69 69 WNW 12 19 30.23 1024 10 16.0934 0 0
11:56 am 11:56 Mostly Sunny 28 -2.2 18 -7.8 66 66 WNW 18 30 30.24 1024 10 16.0934 0 0
12:56 pm 12:56 Partly Cloudy 30 -1.1 19 -7.2 64 64 WNW 13 20 30.24 1024 10 16.0934 0 0
1:56 pm 13:56 Sunny 30 -1.1 17 -8.3 58 58 WNW 15 24 30.22 1024 10 16.0934 0 0
2:56 pm 14:56 Sunny 31 -0.6 18 -7.8 59 59 W 16 26 30.22 1023 10 16.0934 0.02 0.508
3:56 pm 15:56 Sunny 31 -0.6 18 -7.8 59 59 W 17 28 30.22 1024 10 16.0934 0 0
4:56 pm 16:56 Sunny 31 -0.6 19 -7.2 61 61 W 10 17 30.23 1024 10 16.0934 0 0
5:56 pm 17:56 Sunny 30 -1.1 18 -7.8 61 61 WSW 10 17 30.24 1024 10 16.0934 0.12 3.048
6:56 pm 18:56 Clear 28 -2.2 18 -7.8 66 66 W 8 13 30.26 1025 10 16.0934 0 0
7:56 pm 19:56 Clear 27 -2.8 19 -7.2 72 72 WSW 6 9 30.26 1025 10 16.0934 0 0
8:56 pm 20:56 Clear 25 -3.9 19 -7.2 78 78 SW 6 9 30.25 1024 10 16.0934 0 0
9:56 pm 21:56 Clear 26 -3.3 18 -7.8 71 71 SW 5 7 30.25 1024 10 16.0934 0.01 0.254
10:56 pm 22:56 Clear 23 -5 19 -7.2 85 85 Calm 30.24 1024 10 16.0934 0.02 0.508
11:56 pm 23:56 Clear 24 -4.4 18 -7.8 77 77 SW 5 7 30.23 1024 10 16.0934 0.02 0.508

Powered by AerisWeather